[[{"header":{"parameterUnit":"m.s-1","parameterCategory":1,"la1":30.2991,"la2":30.254,"lo1":-89.0895,"lo2":-89.0444,"dy":0.0017,"dx":0.0017,"nx":28,"ny":28,"refTime":"2024-04-13T09:00:00:Z","depth":0,"parameterNumber":2,"parameterNumberName":"U-component_of_WINDS"},"data":[0,0,0,0,0,0,0,0,0,0,0,0,0,0,0,0,0,0,0,0,0,0,0,0,0,0,0,0,0,0,0,0,0,0,0,0,0,0,0,0,0,0,0,0,0,0,0,0,0,0,0,0,0,0,0,0,0,0,0.5891,0.5892,0,0.5949,0.595,0.595,0.5967,0.5967,0.5966,0.5966,0.6024,0.6026,0.6028,0,0,0,0,0,0,0,0,0,0,0,0,0,0.5792,0.5793,0.5891,0.5892,0.5892,0.5949,0.595,0.595,0.5967,0.5967,0.5966,0.5966,0.6023,0.6026,0.6028,0,0,0,0,0,0,0,0,0,0,0,0,0,0.5841,0.5794,0.5891,0.5907,0.591,0.5949,0.595,0.5951,0.5967,0.5967,0.5966,0.5966,0.6023,0.6025,0.6028,0.6054,0,0,0.6037,0.6038,0,0,0,0,0,0,0,0,0.5838,0.5844,0.5904,0.5906,0.5909,0.595,0.5936,0.5985,0.5967,0.5945,0.5966,0.5966,0.6,0.6004,0.6016,0.6057,0.6059,0.6037,0.6038,0.604,0.604,0,0,0,0,0,0,0,0.5834,0.5842,0.5914,0.5905,0.5908,0.5911,0.5918,0.5945,0.5974,0.5947,0.5948,0.5955,0.6001,0.6014,0.6018,0.606,0.6037,0.6039,0.6041,0.6042,0.6123,0.6124,0,0,0,0,0,0,0.5828,0.5839,0.5912,0.5915,0.5872,0.5913,0.5921,0.5937,0.5974,0.5979,0.5956,0.5956,0.6009,0.6015,0.602,0.6052,0.604,0.6042,0.6044,0.6123,0.6123,0.6124,0,0,0,0,0,0,0.5826,0.5835,0.591,0.5878,0.5887,0.5916,0.5934,0.5939,0.5951,0.598,0.5985,0.5963,0.6009,0.6016,0.6045,0.6054,0.6043,0.6046,0.6122,0.6123,0.6123,0.6116,0,0,0,0,0,0,0.5823,0.5834,0.5845,0.5878,0.5889,0.5935,0.5935,0.594,0.5956,0.5957,0.5989,0.5994,0.6009,0.6041,0.6048,0.6057,0.6048,0.6121,0.6122,0.6123,0.6115,0.6116,0.6117,0,0,0,0,0,0.582,0.5841,0.5845,0.5854,0.5903,0.5935,0.5942,0.5959,0.5957,0.5968,0.5986,0.5993,0.6052,0.6044,0.6052,0.6062,0.6121,0.6122,0.6123,0.6115,0.6116,0.6117,0,0,0,0,0,0,0.5808,0.5845,0.5851,0.5883,0.5906,0.5938,0.5952,0.596,0.5983,0.5983,0.6003,0.601,0.6038,0.6053,0.6044,0.6088,0.6086,0.6089,0.6077,0.6079,0.6079,0.6075,0.605,0,0,0,0,0,0.5809,0.5833,0.5864,0.5889,0.59,0.5924,0.5939,0.595,0.5974,0.5984,0.6004,0.6027,0.605,0.6065,0.6089,0.6118,0.6124,0.6128,0.6129,0.613,0.6132,0.6146,0.6148,0.6128,0.6128,0.6127,0,0,0.5812,0.5835,0.5849,0.5887,0.5906,0.5929,0.5932,0.5956,0.5973,0.5987,0.6016,0.6032,0.6058,0.6087,0.61,0.61,0.6139,0.6131,0.6131,0.6133,0.6148,0.615,0.6151,0.6128,0.6128,0.6128,0,0,0.5828,0.5848,0.5871,0.589,0.5918,0.5934,0.5939,0.597,0.5981,0.601,0.602,0.604,0.6081,0.6098,0.6113,0.6134,0.6141,0.6141,0.6145,0.6159,0.616,0.6162,0.6168,0.617,0.6143,0.6143,0.6143,0,0.5827,0.5863,0.5882,0.5905,0.5921,0.5935,0.5957,0.5974,0.6008,0.6019,0.6018,0.6068,0.6087,0.6119,0.6124,0.6135,0.6141,0.6137,0.6159,0.616,0.6162,0.6168,0.6171,0.6142,0.6142,0.6143,0.6143,0,0.586,0.5884,0.5899,0.5932,0.5949,0.5972,0.5993,0.6008,0.6018,0.6033,0.6061,0.6084,0.6112,0.612,0.613,0.6153,0.6152,0.6155,0.6153,0.6164,0.617,0.6172,0.6142,0.6142,0.6142,0.6142,0,0,0.5871,0.5913,0.5918,0.5932,0.5964,0.5983,0.6005,0.6032,0.6044,0.6067,0.6086,0.6119,0.6121,0.6137,0.6149,0.6161,0.6175,0.6162,0.6163,0.6163,0.62,0.6198,0.62,0.6179,0.618,0.618,0.6198,0,0.589,0.5932,0.5949,0.5982,0.6004,0.6016,0.6036,0.6056,0.6071,0.6091,0.6106,0.6129,0.6131,0.614,0.6153,0.617,0.6182,0.6169,0.6196,0.6197,0.6188,0.6204,0.6202,0.6217,0.6201,0.6201,0.6201,0,0.5919,0.5942,0.5977,0.6005,0.6015,0.6032,0.6057,0.6076,0.61,0.6109,0.6126,0.6137,0.616,0.6156,0.6187,0.6178,0.619,0.6199,0.62,0.6203,0.6199,0.6206,0.6223,0.6225,0.6205,0.6205,0.6205,0,0.5922,0.5962,0.5988,0.6,0.6033,0.6045,0.6059,0.6082,0.6096,0.6118,0.6127,0.6151,0.6164,0.6182,0.6198,0.6195,0.6227,0.6226,0.6235,0.6234,0.6241,0.624,0.6259,0.6249,0.6249,0.6249,0.6249,0,0.5941,0.5962,0.5989,0.6005,0.6028,0.6047,0.6069,0.6084,0.6104,0.6122,0.6134,0.6151,0.6171,0.619,0.6203,0.6226,0.6232,0.6239,0.6242,0.6238,0.6237,0.6246,0.6245,0.625,0.625,0.625,0.6249,0,0.5949,0.5968,0.5997,0.6026,0.6033,0.6049,0.6073,0.6088,0.6103,0.6126,0.6132,0.6155,0.6177,0.6195,0.6225,0.6233,0.6257,0.6261,0.6249,0.6251,0.6258,0.6257,0.6283,0.6287,0.6275,0.6275,0.6275,0,0.5959,0.5976,0.6006,0.6019,0.6034,0.6055,0.607,0.6088,0.6103,0.6129,0.6141,0.6165,0.6184,0.622,0.6238,0.6261,0.6265,0.6272,0.6268,0.6263,0.6264,0.6262,0.6264,0.6272,0.6272,0.6272,0.6272,0,0.5976,0.5985,0.6006,0.603,0.6048,0.6067,0.6087,0.6097,0.6119,0.6134,0.6158,0.6173,0.6203,0.6226,0.625,0.6263,0.6271,0.6273,0.6277,0.6272,0.6264,0.6268,0.625,0.6273,0.6273,0.6273,0.6273,0.6273,0.5985,0.6,0.6023,0.6046,0.6063,0.6081,0.6096,0.6113,0.6133,0.6159,0.6168,0.6192,0.6213,0.6246,0.626,0.6278,0.6278,0.6283,0.6284,0.6285,0.6284,0.6262,0.6282,0.6282,0.6282,0.6282,0.6282,0,0.6002,0.6017,0.6038,0.6066,0.6083,0.6089,0.6111,0.6125,0.6146,0.6166,0.6185,0.6211,0.6233,0.6253,0.6275,0.6286,0.629,0.6291,0.629,0.6293,0.6283,0.6277,0.6287,0.6287,0.6287,0.6287,0.6287,0.6287,0.6012,0.6037,0.6048,0.608,0.6096,0.6119,0.6131,0.6147,0.6163,0.6192,0.621,0.6223,0.6242,0.6266,0.6286,0.6291,0.6299,0.6299,0.6305,0.6295,0.6294,0.6293,0.6288,0.63,0.63,0.6314,0.6314,0.6314]},{"header":{"parameterUnit":"m.s-1","parameterCategory":1,"la1":30.2991,"la2":30.254,"lo1":-89.0895,"lo2":-89.0444,"dy":0.0017,"dx":0.0017,"nx":28,"ny":28,"refTime":"2024-04-13T09:00:00:Z","depth":0,"parameterNumber":3,"parameterNumberName":"V-component_of_WINDS"},"data":[0,0,0,0,0,0,0,0,0,0,0,0,0,0,0,0,0,0,0,0,0,0,0,0,0,0,0,0,0,0,0,0,0,0,0,0,0,0,0,0,0,0,0,0,0,0,0,0,0,0,0,0,0,0,0,0,0,0,3.8203,3.8203,0,3.821,3.821,3.821,3.813,3.8128,3.8126,3.8124,3.8131,3.8133,3.8135,0,0,0,0,0,0,0,0,0,0,0,0,0,3.8118,3.812,3.8203,3.8203,3.8203,3.821,3.821,3.821,3.8131,3.8128,3.8125,3.8123,3.813,3.8133,3.8135,0,0,0,0,0,0,0,0,0,0,0,0,0,3.8143,3.8121,3.8203,3.8164,3.8161,3.821,3.821,3.821,3.8131,3.8128,3.8125,3.8121,3.8129,3.8132,3.8136,3.8222,0,0,3.8146,3.8147,0,0,0,0,0,0,0,0,3.8142,3.8146,3.817,3.8167,3.8163,3.8166,3.8183,3.8214,3.8132,3.8142,3.8124,3.812,3.8145,3.8147,3.8155,3.8222,3.8223,3.8146,3.8148,3.815,3.8151,0,0,0,0,0,0,0,3.814,3.8146,3.8205,3.817,3.8166,3.8146,3.8146,3.8188,3.8162,3.8141,3.8135,3.8137,3.8143,3.8152,3.8155,3.8223,3.8146,3.8149,3.8151,3.8152,3.8358,3.8361,0,0,0,0,0,0,3.8144,3.8145,3.8205,3.8206,3.8144,3.815,3.815,3.8168,3.8161,3.8157,3.814,3.8134,3.8148,3.8151,3.8155,3.8253,3.815,3.8153,3.8155,3.8354,3.8358,3.8362,0,0,0,0,0,0,3.8143,3.815,3.8205,3.8174,3.8179,3.8155,3.8176,3.817,3.818,3.8161,3.8155,3.8155,3.8146,3.815,3.8205,3.8252,3.8154,3.8157,3.835,3.8356,3.836,3.8452,0,0,0,0,0,0,3.814,3.815,3.8183,3.8175,3.8181,3.8256,3.8179,3.8173,3.8186,3.8177,3.8173,3.8169,3.8144,3.8201,3.8209,3.8255,3.816,3.8346,3.8353,3.8359,3.8445,3.846,3.8473,0,0,0,0,0,3.8138,3.821,3.8185,3.8193,3.8222,3.8259,3.8262,3.8231,3.819,3.8222,3.821,3.8169,3.8246,3.8207,3.8215,3.8264,3.8343,3.8351,3.8358,3.8439,3.8457,3.8473,0,0,0,0,0,0,3.8225,3.8208,3.8181,3.8252,3.8258,3.8245,3.8286,3.8252,3.8269,3.8261,3.8221,3.8221,3.8282,3.8279,3.8235,3.8345,3.8287,3.8297,3.8345,3.8363,3.8377,3.8376,3.8163,0,0,0,0,0,3.8252,3.8284,3.8267,3.8332,3.8336,3.8311,3.8326,3.8301,3.8305,3.8307,3.8298,3.8303,3.8328,3.8345,3.8368,3.8444,3.8441,3.8482,3.8496,3.8507,3.8516,3.8554,3.8571,3.8388,3.8388,3.8388,0,0,3.8309,3.8304,3.8327,3.8349,3.835,3.8383,3.8313,3.8351,3.8375,3.8312,3.8363,3.8357,3.836,3.8426,3.8454,3.8425,3.8566,3.8517,3.8527,3.8529,3.8564,3.8581,3.8596,3.8393,3.8392,3.8391,0,0,3.843,3.843,3.8482,3.8484,3.8487,3.8469,3.8482,3.8474,3.8467,3.8518,3.8471,3.8498,3.8543,3.8546,3.8554,3.8673,3.8636,3.8682,3.8754,3.8792,3.8806,3.8819,3.8859,3.8875,3.869,3.8691,3.8691,0,3.85,3.8548,3.8514,3.8554,3.8564,3.8509,3.8561,3.8565,3.8575,3.8583,3.8549,3.8602,3.8601,3.8665,3.8694,3.8703,3.8715,3.8681,3.8807,3.8819,3.883,3.8869,3.8884,3.8696,3.8695,3.8695,3.8694,0,3.8634,3.8667,3.8709,3.8719,3.8734,3.8781,3.8752,3.8771,3.8745,3.8731,3.8782,3.8777,3.8797,3.881,3.8786,3.8871,3.8852,3.8814,3.8754,3.8854,3.8889,3.8904,3.8704,3.8702,3.87,3.8699,0,0,3.881,3.8798,3.8814,3.8816,3.8814,3.8839,3.8882,3.89,3.8917,3.8925,3.8959,3.8997,3.8961,3.8969,3.8944,3.8978,3.907,3.8934,3.8934,3.8958,3.9161,3.9189,3.9207,3.9046,3.9048,3.905,3.916,0,3.8925,3.8998,3.8967,3.9042,3.9071,3.9018,3.9055,3.9057,3.9044,3.9067,3.9053,3.908,3.9031,3.9035,3.9066,3.9052,3.911,3.9044,3.9076,3.9077,3.9075,3.9226,3.9256,3.936,3.9174,3.9176,3.9178,0,3.907,3.9083,3.9161,3.915,3.9161,3.9196,3.9208,3.9231,3.9232,3.922,3.9229,3.9196,3.9236,3.9178,3.9232,3.9188,3.9199,3.9194,3.9197,3.9198,3.9133,3.9229,3.9392,3.9407,3.92,3.9198,3.9197,0,3.9188,3.9225,3.9275,3.928,3.927,3.9294,3.9291,3.9288,3.9301,3.9312,3.9319,3.9336,3.9345,3.9358,3.9329,3.929,3.9387,3.9327,3.9377,3.9378,3.9399,3.9398,3.9565,3.9409,3.9409,3.9409,3.9409,0,3.932,3.9369,3.9328,3.9359,3.9412,3.9375,3.9429,3.942,3.9417,3.9445,3.9401,3.9428,3.9389,3.9412,3.9391,3.9438,3.9443,3.9434,3.9427,3.9437,3.9438,3.9443,3.9434,3.9413,3.9412,3.9411,3.9411,0,3.946,3.9435,3.9486,3.9472,3.9469,3.9509,3.9496,3.9524,3.9507,3.9543,3.9549,3.9524,3.9548,3.9521,3.9545,3.953,3.9593,3.9576,3.9592,3.9587,3.9639,3.9634,3.9814,3.9835,3.9667,3.9669,3.967,0,3.9545,3.9581,3.957,3.9585,3.9584,3.961,3.9621,3.9586,3.96,3.9602,3.9629,3.965,3.9664,3.9706,3.9689,3.9706,3.9689,3.9751,3.9691,3.9699,3.9688,3.9685,3.9688,3.9763,3.9765,3.9766,3.9768,0,3.9698,3.9683,3.9701,3.9715,3.9729,3.9739,3.9744,3.9759,3.9723,3.974,3.9764,3.9776,3.9798,3.9818,3.983,3.9827,3.9791,3.9787,3.9799,3.9809,3.9816,3.9811,3.9624,3.9782,3.9781,3.978,3.9779,3.9778,3.9812,3.984,3.9836,3.9857,3.9858,3.9864,3.9888,3.9874,3.9893,3.9908,3.9886,3.9916,3.9914,3.9926,3.9926,3.9948,3.9922,3.994,3.9944,3.9949,3.9956,3.9813,3.9951,3.995,3.995,3.9949,3.9949,0,3.996,3.9955,3.9974,3.9983,3.9999,3.9963,3.9967,3.9983,4.0009,4.001,4.0025,4.0051,4.0071,4.0055,4.0071,4.0092,4.0076,4.0097,4.0094,4.0094,3.998,3.9967,4.0109,4.0109,4.0109,4.0109,4.0109,4.0109,4.004,4.0085,4.007,4.0115,4.0108,4.0136,4.0141,4.0146,4.0146,4.0177,4.0192,4.0182,4.0176,4.019,4.0206,4.0201,4.0208,4.0235,4.0224,4.0118,4.0102,4.0087,4.0074,4.0237,4.0238,4.0336,4.0337,4.0338]}]]